Location: Atherton
(17.2661°S, 145.4859°E)
Time: 01:50:26
(UTC+10:00)

Transit 4A - All Passes

Search period start: 24 June 2025 00:00
Search period end: 04 July 2025 00:00
Orbit: 867 x 974 km, 66.8° (Epoch: 22 June)

Date Brightness Start Highest point End Pass type
(mag) Time Alt. Az. Time Alt. Az. Time Alt. Az.
24 Jun - 08:32:14 10° SSW 08:38:38 76° ESE 08:45:00 10° NNE daylight
24 Jun - 21:39:38 10° NNW 21:45:26 82° WSW 21:51:22 10° SSE night (unlit)
25 Jun - 06:58:17 10° SE 07:00:49 12° ESE 07:03:21 10° E daylight
25 Jun - 08:41:05 10° SSW 08:47:25 69° WNW 08:53:44 10° NNE daylight
25 Jun - 20:05:44 10° NE 20:08:27 13° ENE 20:11:12 10° ESE visible
25 Jun - 21:48:39 10° NW 21:54:13 49° WSW 21:59:57 10° S night (unlit)
26 Jun - 07:05:13 10° SSE 07:09:51 21° ESE 07:14:28 10° ENE daylight
26 Jun - 08:50:12 10° SW 08:56:09 42° WNW 09:02:04 10° N daylight
26 Jun - 20:12:35 10° NNE 20:17:06 24° ENE 20:21:40 10° SE visible
26 Jun - 21:58:07 10° NW 22:03:06 30° WSW 22:08:13 10° S night (unlit)
27 Jun - 07:13:07 10° S 07:18:47 33° ESE 07:24:25 10° NE daylight
27 Jun - 08:59:44 10° SW 09:04:51 26° WNW 09:09:56 10° NNW daylight
27 Jun - 20:20:24 10° N 20:25:46 40° ENE 20:31:14 10° SE visible
27 Jun - 22:08:11 10° WNW 22:12:03 18° WSW 22:15:59 10° SSW night (unlit)
28 Jun - 07:21:27 10° S 07:27:40 53° ESE 07:33:50 10° NE daylight
28 Jun - 09:10:02 10° WSW 09:13:30 15° WNW 09:16:59 10° NW daylight
28 Jun - 20:28:44 10° NNW 20:34:28 69° ENE 20:40:21 10° SSE visible
28 Jun - 22:20:12 10° WSW 22:21:05 10° WSW 22:21:58 10° SW night (unlit)
29 Jun - 07:30:04 10° SSW 07:36:29 85° ESE 07:42:51 10° NNE daylight
29 Jun - 20:37:28 10° NNW 20:43:14 72° WSW 20:49:10 10° SSE visible
30 Jun - 05:55:27 10° SSE 05:58:44 14° ESE 06:02:00 10° E visible
30 Jun - 07:38:58 10° SSW 07:45:15 60° WNW 07:51:29 10° N daylight
30 Jun - 19:02:52 10° NE 19:06:14 16° ENE 19:09:37 10° ESE visible
30 Jun - 20:46:35 10° NW 20:52:04 43° WSW 20:57:41 10° S visible
01 Jul - 06:02:46 10° SSE 06:07:44 23° ESE 06:12:40 10° ENE visible
01 Jul - 07:48:11 10° SW 07:53:58 37° WNW 07:59:44 10° N daylight
01 Jul - 19:10:04 10° NNE 19:14:52 27° ENE 19:19:45 10° SE visible
01 Jul - 20:56:11 10° WNW 21:00:57 26° WSW 21:05:50 10° S visible
02 Jul - 06:10:48 10° S 06:16:39 37° ESE 06:22:28 10° NE visible
02 Jul - 07:57:51 10° WSW 08:02:39 23° WNW 08:07:26 10° NNW daylight
02 Jul - 19:18:04 10° N 19:23:33 46° ENE 19:29:10 10° SE visible
02 Jul - 21:06:29 10° W 21:09:55 16° WSW 21:13:24 10° SSW visible
03 Jul - 06:19:12 10° SSW 06:25:30 60° ESE 06:31:46 10° NNE visible
03 Jul - 08:08:33 10° W 08:11:18 13° WNW 08:14:03 10° NW daylight
03 Jul - 19:26:29 10° NNW 19:32:16 78° ENE 19:38:13 10° SSE visible
